Location: Bodest
(46.3000°N, 22.5667°E)
Time: 23:10:31
(UTC+00:00)

Okean 1 Rocket - Pass Details

Date: 16 October 2021
Orbit: 607 x 633 km, 82.5° (Epoch: 26 November)

Event Time Altitude Azimuth Distance (km) Brightness Sun altitude
Rises 16:55:24 0° 200° (SSW) 2,854 6.7 -13.5°
Reaches altitude 10° 16:57:40 10° 206° (SSW) 1,954 5.9 -13.9°
Maximum altitude 17:01:52 51° 282° (WNW) 770 4.0 -14.6°
Drops below altitude 10° 17:06:08 10° 359° (N) 1,974 5.7 -15.4°
Sets 17:08:25 0° 5° (N) 2,886 6.5 -15.8°
